Find Starlink 3176

NORAD ID: 51106 Int'l Des: 2022-005 Owner: SPXS Country: US Constellation: starlink operational
LEOCIRCULAR

当前视图

正在加载3D地球...

About Starlink 3176

Starlink 3176 (NORAD 51106) is a starlink constellation satellite (v1.5) launched Jan 19, 2022 by SPXS of US. It operates in LEO, CIRCULAR orbit with a mass of 297.00 kg.

关于 Starlink 3176

正在加载描述...

即将过境

Passes for default location (London). Set your location on the main map for personalized predictions.

高度历史

Loading altitude history...

两行轨道根数

1 51106U 22005C 26171.43004152 .00000212 00000-0 31386-4 0 9998
2 51106 53.1587 187.7847 0001141 85.0277 275.0845 15.08833183244384
Epoch: Jun 20, 2026 • Age: 26 hours

当前状态

高度 553.7 km
速度 7.58 km/s
星下点 -40.26°S, 59.59°W
发射日期 Jan 19, 2022
运行时间 4.4 years
类型 internet

技术详情

分类 Payload
质量 297.00 kg
干质量 275.00 kg
总质量 297.00 kg
长度 0.20 m
直径 2.80 m
跨度 9.00 m
形状 Box + pan
制造商 SPXS
平台类型 Starlink
阶段状态 In Orbit
所有者/国家 SPXS/US

Most Searched